Morrisville, VT

11:51 AM EST on December 11, 2019 (GMT -0500)
Morrisville Stowe State

Weather History for KMVL - August, 2019

Change the Weather History Date:

Tuesday, August 20, 2019

  Actual Average Record
Temperature  
Mean Temperature 68 °F 65 °F  
Max Temperature 81 °F 77 °F 87 °F (2015)
Min Temperature 54 °F 53 °F 39 °F (2007)
Degree Days  
Heating Degree Days 0 2  
Month to date heating degree days 20 35  
Since 1 June heating degree days 173 188  
Since 1 July heating degree days 30 65  
Cooling Degree Days 2 2  
Month to date cooling degree days 55 56  
Year to date cooling degree days 237 224  
Since 1 June cooling degree days 236 216  
Growing Degree Days 18 (Base 50)    
Moisture  
Dew Point 55 °F    
Average Humidity 70    
Maximum Humidity 100    
Minimum Humidity 36    
Precipitation  
Precipitation 0.00 in 0.14 in 2.05 in (2006)
Month to date precipitation 2.61 2.78  
Year to date precipitation 26.05 22.51  
Sea Level Pressure  
Sea Level Pressure 30.06 in    
Wind  
Wind Speed 2 mph ()    
Max Wind Speed 12 mph    
Max Gust Speed 15 mph    
Visibility 10.0 miles    
Events      
T = Trace of Precipitation, MM = Missing Value Source: Averaged Metar Reports

Daily Weather History Graph

Daily Weather History Graph

Search for Another Location

Airport or City:

Astronomy

Aug. 20, 2019 Rise Set
Actual Time 5:58 AM EDT 7:48 PM EDT
Civil Twilight 5:27 AM EDT 8:19 PM EDT
Nautical Twilight 4:49 AM EDT 8:57 PM EDT
Astronomical Twilight 4:08 AM EDT 9:38 PM EDT
Moon 10:24 PM EDT (8/20) 10:44 AM EDT (8/20)
Length of Visible Light 14h 51m
Length of Day
13h 49m
Waning Gibbous, 78% of the Moon is Illuminated
Aug 20
Waning Gibbous
Aug 23
Last Quarter
Aug 30
New
Sep 5
First Quarter
Sep 14
Full

Hourly Weather History & Observations

Time (EDT) Temp. Heat Index Dew Point Humidity Pressure Visibility Wind Dir Wind Speed Gust Speed Precip Events Conditions
12:54 AM 64.9 °F - 57.9 °F 78% 30.01 in 10.0 mi Calm Calm - N/A   Clear
1:54 AM 62.1 °F - 57.0 °F 84% 30.02 in 10.0 mi NW 4.6 mph - N/A   Clear
2:54 AM 61.0 °F - 55.9 °F 83% 30.04 in 10.0 mi Calm Calm - N/A   Clear
3:54 AM 57.0 °F - 55.0 °F 93% 30.06 in 10.0 mi Calm Calm - N/A   Clear
4:54 AM 55.9 °F - 54.0 °F 93% 30.07 in 10.0 mi Calm Calm - N/A   Clear
5:54 AM 55.0 °F - 53.1 °F 93% 30.08 in 10.0 mi Calm Calm - N/A   Clear
6:54 AM 55.9 °F - 55.0 °F 97% 30.10 in 10.0 mi Calm Calm - N/A   Clear
7:54 AM 60.1 °F - 57.0 °F 90% 30.11 in 10.0 mi Calm Calm - N/A   Clear
8:54 AM 66.9 °F - 60.1 °F 79% 30.12 in 10.0 mi SSE 3.5 mph - N/A   Clear
9:54 AM 72.0 °F - 55.9 °F 57% 30.11 in 10.0 mi SSE 3.5 mph - N/A   Clear
10:54 AM 75.0 °F - 53.1 °F 46% 30.11 in 10.0 mi Calm Calm - N/A   Clear
11:54 AM 75.9 °F - 48.0 °F 37% 30.09 in 10.0 mi SSW 5.8 mph - N/A   Clear
12:54 PM 78.1 °F - 51.1 °F 39% 30.07 in 10.0 mi South 3.5 mph - N/A   Clear
1:54 PM 81.0 °F 80.4 °F 53.1 °F 38% 30.06 in 10.0 mi Variable 3.5 mph - N/A   Clear
2:54 PM 80.1 °F 80.0 °F 54.0 °F 40% 30.06 in 10.0 mi SSW 8.1 mph - N/A   Clear
3:54 PM 81.0 °F - 52.0 °F 36% 30.05 in 10.0 mi Variable 6.9 mph - N/A   Clear
4:54 PM 80.1 °F 79.9 °F 53.1 °F 39% 30.05 in 10.0 mi SSW 6.9 mph - N/A   Clear
5:54 PM 79.0 °F - 55.0 °F 44% 30.04 in 10.0 mi SSW 6.9 mph - N/A   Clear
6:54 PM 72.0 °F - 61.0 °F 68% 30.02 in 10.0 mi Calm Calm - N/A   Clear
7:54 PM 64.9 °F - 60.1 °F 84% 30.03 in 10.0 mi Calm Calm - N/A   Clear
8:54 PM 62.1 °F - 57.9 °F 86% 30.04 in 10.0 mi South 3.5 mph - N/A   Clear
9:54 PM 59.0 °F - 57.0 °F 93% 30.04 in 10.0 mi Calm Calm - N/A   Clear
10:54 PM 57.9 °F - 55.9 °F 93% 30.03 in 10.0 mi Calm Calm - N/A   Clear
11:54 PM 55.9 °F - 54.0 °F 93% 30.04 in 10.0 mi SSW 3.5 mph - N/A   Clear